Notices

What's New in latest Release from April 7th, 2021:

- Updated Glossary, including Speed of Maximum Gust, and Total Hourly Precipitation

- Updated national and regional climate services offices contacts and prices information

- Addition of station inventory lists for 1981-2010, 1971-2000, and 1961-1990 Normals.

If you haven't already, please take our survey and provide feedback about our website: https://eccc.sondage-survey.ca/f/LanguageSelection.aspx?s=442ca660-fcf1-47c0-95a9-59707d6fd709

Hourly Data Report for May 28, 2020

MIRAMICHI RCS
NEW BRUNSWICK
Current Station Operator: ECCC - MSC

47°00'34.000" N
65°27'54.000" W
33.00 m
8100989
71744
ACQ

Download Data

Hourly Data (May 2020)
Hourly Data Report for May 28, 2020
TIME
LST
Temp Definition
°C
Dew Point Definition
°C
Rel Hum Definition
%
Precip. Amount Definition
mm

Wind Dir Definition
10's deg

Wind Spd Definition
km/h
Visibility Definition
km
Stn Press Definition
kPa
Hmdx Definition


Wind Chill Definition


Weather Definition


00:00 11.6 11.6 100 LegendMM 11 1   101.38     LegendNANA
01:00 12.0 12.0 100 LegendMM 24 4   101.32     LegendNANA
02:00 12.3 LegendMM LegendMM LegendMM 25 3   101.27     LegendNANA
03:00 12.4 LegendMM LegendMM LegendMM 28 4   101.23     LegendNANA
04:00 14.7 LegendMM LegendMM LegendMM 24 9   101.20     LegendNANA
05:00 16.8 16.6 99 LegendMM 23 14   101.22     LegendNANA
06:00 17.4 16.7 96 LegendMM 23 18   101.22     LegendNANA
07:00 18.9 17.4 91 LegendMM 23 19   101.20     LegendNANA
08:00 21.4 19.9 91 LegendMM 22 21   101.17 29   LegendNANA
09:00 24.0 23.3 96 LegendMM 21 22   101.14 35   LegendNANA
10:00 25.9 25.5 98 LegendMM 23 19   101.13 39   LegendNANA
11:00 28.4 26.9 92 LegendMM 22 19   101.07 43   LegendNANA
12:00 28.6 28.3 98 LegendMM 20 21   101.04 45   LegendNANA
13:00 31.0 29.0 89 LegendMM 23 21   100.97 48   LegendNANA
14:00 32.2 29.4 85 LegendMM 21 26   100.89 50   LegendNANA
15:00 32.8 24.3 61 LegendMM 21 25   100.86 44   LegendNANA
16:00 33.4 21.1 49 LegendMM 21 28   100.81 42   LegendNANA
17:00 32.7 20.2 48 LegendMM 22 31   100.80 40   LegendNANA
18:00 30.7 18.9 50 LegendMM 21 26   100.79 37   LegendNANA
19:00 28.9 21.8 66 LegendMM 20 23   100.83 38   LegendNANA
20:00 26.1 24.2 90 LegendMM 20 22   100.85 38   LegendNANA
21:00 23.6 19.4 77 LegendMM 21 17   100.91 31   LegendNANA
22:00 22.1 18.6 81 LegendMM 22 22   100.90 29   LegendNANA
23:00 20.3 18.6 90 LegendMM 23 17   100.86 27   LegendNANA

Notes on Data Quality.

Legend

  • E = Estimated
  • M = Missing
  • NA = Not Available*
  • [empty] = Indicates an unobserved value
Date modified: